Location: Berlijn
(52.5200°N, 13.4050°E)
Time: 09:03:36
(UTC+02:00)

Envisat - Pass Details

Date: 27 September 2021
Orbit: 764 x 766 km, 98.2° (Epoch: 25 October)

Event Time Altitude Azimuth Distance (km) Brightness Sun altitude
Rises 06:19:59 0° 15° (NNE) 3,246 6.6 -7.0°
Reaches altitude 10° 06:22:19 10° 18° (NNE) 2,315 5.8 -6.7°
Maximum altitude 06:27:25 72° 103° (ESE) 808 3.4 -5.9°
Drops below altitude 10° 06:32:28 10° 188° (S) 2,297 5.4 -5.1°
Sets 06:34:46 0° 190° (S) 3,218 6.1 -4.8°
